Wetbulb
44.61 42.75 40.66 42.59 43.10 41.80 40.21 38.67 38.31 41.69 44.80 41.99 43.03 43.67 45.38 48.10 48.05 48.28 49.61 50.56 50.64 51.24 53.95 54.52 55.33 56.32 59.17 62.72 66.91 71.07 71.21 72.48 72.19 70.88 70.31 70.33 70.40 71.78 71.83 71.83 73.14 72.98 72.67 73.57
42.99 40.51 44.70 43.85 42.35 40.97 40.44 39.18 39.61 42.36 44.19 42.54 43.57 43.14 46.13 46.83 47.66 48.81 49.39 50.02 51.30 52.22 53.35 54.74 55.69 56.78 58.60 61.54 64.33 68.47 71.39 72.27 71.93 70.99 71.87 70.99 70.86 71.19 71.05 71.39 71.71 72.72 72.62 72.35
40.81 42.12 43.45 42.44 41.56 40.11 41.06 39.12 39.88 39.78 42.98 44.85 43.13 41.36 43.96 46.56 47.38 48.49 49.64 51.01 51.77 52.12 52.14 53.75 55.20 56.25 59.56 60.41 63.89 66.62 69.96 71.48 71.35 71.78 71.66 71.40 70.96 70.71 70.13 70.38 70.43 71.41 71.53 71.38
42.32 44.84 42.63 41.58 40.51 41.88 38.52 42.69 41.83 41.09 40.62 36.30 42.91 34.17 42.01 44.92 45.78 47.19 48.30 49.90 50.89 51.81 52.77 53.14 55.26 56.31 58.46 61.02 62.17 64.66 67.57 69.94 70.31 71.50 70.70 70.06 68.85 68.11 69.37 70.16 70.50 70.67 70.94 71.03
41.73 41.65 41.50 40.89 41.71 43.04 41.03 44.58 43.40 42.66 40.46 38.88 39.57 35.84 39.85 44.44 42.80 45.56 47.77 49.11 50.72 51.77 52.10 53.19 54.21 55.50 56.91 59.40 61.90 63.55 66.98 69.30 70.79 71.20 72.03 70.43 70.40 70.84 70.93 70.65 71.03 72.02 71.68 71.58
42.93 45.41 44.20 43.45 44.50 45.04 45.46 43.65 43.15 40.77 39.63 32.55 38.04 37.24 37.22 40.80 43.26 44.98 47.30 48.45 49.50 51.54 52.46 53.49 54.63 55.17 55.22 57.23 60.88 62.41 65.15 68.43 70.25 71.11 71.36 71.32 70.72 70.42 69.35 70.13 69.63 70.33 71.08 71.58
41.72 42.12 44.97 46.41 42.82 45.17 43.85 40.36 33.20 31.56 32.04 30.72 38.21 35.71 37.94 43.68 45.22 46.46 47.10 48.68 50.42 51.79 52.40 52.65 53.26 54.22 55.11 55.13 58.14 61.23 62.60 65.48 66.95 69.56 70.93 71.16 70.96 70.68 69.99 69.84 69.37 69.64 69.18 69.62
35.82 34.26 42.03 45.77 43.25 40.43 40.80 38.99 32.19 24.86 26.96 30.30 37.06 31.65 37.40 45.03 47.63 48.16 48.70 49.46 50.59 51.35 52.50 52.75 53.13 53.42 55.02 55.34 55.42 59.31 61.27 63.43 64.45 64.52 65.48 66.08 66.56 66.43 67.17 68.22 67.36 67.68 67.99 68.92
37.12 36.11 43.73 44.71 45.60 44.28 39.40 36.42 40.67 34.71 34.73 30.14 33.48 37.74 42.93 45.22 46.33 47.28 47.58 48.74 49.34 50.47 51.42 52.68 54.07 54.04 54.30 56.59 56.68 57.68 59.54 61.77 61.57 61.36 62.47 63.05 63.65 63.89 63.56 65.14 65.94 65.07 66.38 66.30
40.05 34.04 40.22 42.28 45.28 44.32 41.90 43.36 33.76 35.83 24.09 23.31 31.17 33.33 35.18 40.70 43.01 45.62 46.42 46.91 48.29 50.31 51.02 52.09 53.18 54.41 54.72 54.91 57.27 57.62 58.73 59.48 60.13 60.55 61.14 61.07 62.13 62.94 63.45 63.38 63.59 64.25 64.75 64.72
42.15 37.95 36.16 40.06 38.56 37.24 38.84 37.66 38.30 36.10 32.23 26.77 25.72 32.03 42.17 41.46 43.58 43.75 45.63 46.94 47.19 48.02 49.56 51.05 52.47 54.15 55.55 56.35 55.51 57.29 57.45 56.08 56.50 59.29 60.35 61.07 61.72 62.31 62.36 62.33 63.15 63.48 63.71 64.00
41.56 39.14 33.75 35.74 40.02 41.03 39.92 37.63 37.70 31.48 28.91 33.08 31.56 30.91 43.78 44.95 44.79 45.55 46.06 47.13 47.87 47.73 48.62 49.65 50.91 52.63 53.48 54.30 55.87 56.26 57.23 58.33 57.87 57.36 57.55 59.40 61.11 61.49 61.77 62.04 62.73 63.46 63.11 63.71
41.67 36.73 31.26 32.49 36.68 38.70 37.56 39.33 39.59 37.79 35.68 30.27 27.63 31.08 43.97 45.33 44.83 45.85 46.00 47.04 47.22 47.28 48.01 48.89 49.38 49.80 50.98 52.37 53.54 54.42 54.88 55.37 55.61 56.58 57.53 59.02 59.58 60.44 61.28 62.22 63.11 63.42 63.35 63.03
44.62 37.54 35.16 30.19 33.28 36.67 33.84 36.40 38.53 37.27 31.53 31.65 32.27 34.29 39.76 42.32 43.18 45.16 45.97 46.40 46.44 46.99 47.62 47.96 48.18 48.98 49.96 51.24 52.33 51.95 51.84 52.95 53.81 54.33 54.75 56.72 59.20 59.62 60.51 61.83 61.91 61.76 61.97 61.79
41.35 35.39 36.62 37.02 37.64 36.59 35.93 35.84 36.55 35.01 35.90 31.14 34.76 35.55 40.00 42.75 44.01 44.49 45.24 45.77 45.34 45.74 46.33 46.56 46.86 48.16 49.36 49.97 50.64 51.06 52.24 52.95 52.18 51.83 52.50 54.00 56.03 58.10 59.08 58.65 59.75 60.19 60.90 61.43
39.30 35.56 36.17 33.90 37.10 36.92 34.24 36.54 36.90 36.94 37.07 36.48 37.27 37.36 43.17 44.10 45.03 44.42 44.69 44.57 44.31 44.97 45.24 45.88 46.94 47.98 48.53 49.18 49.37 49.73 50.02 49.99 50.75 49.91 50.17 51.94 52.82 54.59 56.39 57.64 58.24 59.20 59.64 60.03
37.39 36.46 33.20 28.83 34.04 34.61 31.37 35.98 36.60 37.04 39.33 39.26 34.95 40.02 43.42 42.50 42.49 42.89 42.70 43.26 43.28 43.88 44.71 45.47 46.39 47.20 48.35 48.94 49.61 49.40 50.30 51.23 50.70 50.64 50.80 51.10 51.75 52.53 54.04 55.21 56.99 57.78 58.29 59.04
36.27 35.43 34.66 30.12 33.34 24.88 35.99 41.75 40.71 39.05 40.33 41.97 41.69 41.97 42.26 41.97 42.74 43.25 44.33 43.55 43.35 44.09 44.83 45.68 46.39 47.86 49.42 49.52 49.26 50.08 50.49 50.21 50.00 49.95 50.37 51.15 51.48 51.55 52.58 53.63 54.59 56.61 57.28 57.91
39.75 36.81 32.78 29.64 30.11 33.81 35.50 38.35 38.36 36.54 37.04 41.77 39.18 40.56 41.67 42.21 41.85 41.09 44.28 45.31 44.40 44.86 46.03 47.39 47.71 47.60 49.21 49.05 50.39 50.23 49.31 48.83 48.67 48.78 49.56 50.38 51.07 51.31 51.53 52.22 53.51 55.06 55.84 55.85
37.11 38.72 35.11 31.77 27.94 25.28 34.15 41.11 42.38 41.38 33.41 40.43 40.26 39.28 38.86 39.41 33.27 37.53 43.25 43.98 44.11 44.48 44.56 46.10 46.81 47.01 46.70 45.78 47.02 45.49 45.81 47.06 47.64 48.31 49.82 50.54 50.62 50.54 50.75 52.31 53.79 54.42 54.94 55.23
33.88 34.26 31.19 31.31 30.77 34.32 39.05 41.06 42.67 31.42 34.09 40.32 39.98 39.70 39.20 36.35 38.77 41.53 43.42 42.89 43.63 43.73 43.87 44.67 44.06 43.67 43.30 44.87 44.70 43.23 43.90 43.58 46.61 47.88 49.95 50.92 51.14 50.54 51.17 52.50 53.45 54.13 53.88 54.31
34.90 33.79 32.63 33.05 30.61 28.00 41.50 41.53 35.25 39.48 41.16 40.51 40.39 39.84 38.57 39.81 40.48 41.22 41.58 41.60 41.64 41.78 41.24 41.52 42.18 40.91 41.33 41.66 40.91 39.90 40.51 42.92 43.89 44.63 45.35 47.30 50.23 49.91 50.21 51.52 52.32 53.41 53.99 53.40
34.00 38.32 36.13 36.49 36.41 40.33 42.35 41.09 42.18 42.05 39.96 39.47 38.82 39.82 40.70 39.95 39.82 40.47 40.08 40.44 40.44 40.40 40.56 41.48 40.01 38.98 39.59 40.01 39.93 38.23 39.33 40.99 42.01 42.48 43.23 44.67 47.01 47.49 50.47 50.67 51.07 50.80 52.75 51.93
40.54 40.56 39.14 37.68 38.78 39.58 41.26 41.58 42.52 41.94 40.00 40.69 41.08 41.46 41.55 39.12 39.95 39.12 39.09 38.94 39.29 39.38 38.76 39.34 38.30 37.32 37.52 39.27 39.78 39.75 40.06 40.69 40.74 40.76 41.01 43.13 43.81 44.95 46.21 47.86 49.40 48.95 49.28 50.46
39.56 40.43 37.58 38.30 40.18 41.13 40.29 42.19 41.43 41.19 41.58 41.03 41.54 41.21 40.65 40.62 38.87 38.66 38.01 38.22 38.05 37.35 37.48 38.11 38.49 38.68 38.96 40.47 41.31 43.08 42.21 41.03 40.54 40.13 40.36 41.88 43.51 44.64 45.02 45.61 47.21 48.98 51.90 51.50
41.28 38.89 37.92 37.01 37.73 38.58 39.30 41.37 42.06 40.36 40.01 40.80 40.29 40.08 40.77 40.28 38.78 38.48 37.16 37.58 36.45 35.51 37.58 37.88 38.17 38.73 39.59 41.30 42.75 40.93 40.79 40.54 41.61 39.13 40.50 41.62 43.75 43.51 44.83 45.25 46.64 42.53 44.29 42.64
MSLP
1009.86 1009.74 1009.45 1009.69 1010.07 1010.28 1010.48 1010.43 1010.09 1009.66 1009.13 1008.95 1007.86 1007.32 1007.07 1006.37 1006.05 1005.53 1004.94 1004.68 1004.89 1004.74 1004.36 1004.30 1004.22 1004.25 1004.13 1004.23 1004.44 1004.51 1005.00 1005.11 1005.70 1006.27 1006.76 1007.27 1007.35 1007.84 1008.49 1008.81 1009.08 1009.61 1009.61 1009.75
1009.70 1009.20 1009.08 1009.61 1009.99 1010.19 1010.23 1010.04 1009.71 1009.32 1008.89 1008.68 1007.23 1006.57 1006.20 1006.00 1005.36 1004.98 1004.72 1004.52 1004.16 1004.27 1004.11 1003.89 1003.84 1003.76 1003.66 1003.38 1003.25 1003.54 1003.90 1004.60 1005.01 1005.31 1005.65 1006.17 1006.84 1007.52 1008.02 1008.69 1008.96 1009.00 1009.23 1009.55
1009.11 1009.03 1009.23 1009.47 1009.70 1009.85 1009.67 1009.70 1009.44 1009.28 1008.77 1008.19 1006.91 1005.45 1005.33 1005.37 1005.02 1004.45 1004.36 1004.34 1004.09 1003.80 1003.51 1003.37 1003.10 1003.05 1002.97 1002.83 1002.81 1002.88 1002.94 1003.46 1004.21 1004.79 1005.67 1006.01 1006.67 1007.41 1007.53 1007.75 1008.11 1008.36 1008.45 1008.72
1008.99 1008.82 1008.93 1009.09 1009.15 1009.38 1009.00 1009.20 1009.22 1009.14 1008.81 1007.75 1007.76 1003.18 1004.81 1004.70 1004.17 1004.19 1003.90 1003.70 1003.40 1003.15 1003.06 1003.13 1002.88 1002.43 1002.48 1002.15 1002.52 1002.60 1002.67 1003.01 1003.56 1004.35 1004.93 1005.03 1005.00 1005.58 1005.78 1006.12 1006.48 1007.17 1007.77 1008.17
1008.30 1008.46 1008.56 1008.60 1008.60 1009.02 1008.78 1009.08 1009.23 1009.26 1008.92 1008.54 1007.92 1005.95 1004.47 1004.64 1004.16 1003.63 1003.25 1003.12 1002.75 1002.97 1003.12 1002.88 1002.74 1002.40 1002.11 1002.05 1002.12 1002.09 1002.45 1002.71 1002.92 1003.46 1003.75 1003.94 1004.42 1004.92 1005.35 1005.50 1006.03 1006.41 1007.23 1007.52
1008.39 1008.62 1008.52 1008.40 1008.85 1009.11 1009.36 1009.35 1009.52 1009.79 1009.35 1008.14 1007.73 1006.93 1003.51 1003.97 1003.85 1003.59 1003.41 1003.20 1003.18 1003.39 1003.38 1002.92 1002.69 1002.45 1001.93 1001.71 1001.62 1001.82 1001.91 1002.12 1002.53 1002.84 1003.06 1003.38 1003.74 1004.25 1004.68 1005.00 1005.52 1005.83 1006.32 1007.05
1008.21 1008.26 1008.43 1008.77 1008.98 1009.52 1009.74 1009.97 1009.52 1009.09 1008.73 1007.70 1008.31 1007.15 1004.89 1004.52 1004.52 1004.35 1004.03 1003.97 1004.05 1003.96 1003.63 1003.23 1002.64 1002.31 1001.79 1001.41 1001.19 1001.19 1001.38 1001.55 1002.06 1002.39 1002.71 1003.02 1003.41 1003.90 1004.27 1004.80 1005.05 1005.41 1005.71 1006.09
1008.82 1008.68 1008.93 1009.18 1009.27 1009.67 1010.36 1010.87 1011.02 1010.00 1009.46 1008.41 1008.96 1006.87 1005.49 1005.66 1005.68 1005.38 1005.38 1005.13 1004.94 1004.46 1003.83 1003.30 1002.89 1002.75 1002.02 1001.22 1000.92 1000.99 1000.80 1000.83 1001.54 1002.11 1002.61 1003.10 1003.51 1003.64 1003.89 1004.26 1004.63 1004.97 1005.26 1005.65
1009.31 1009.41 1009.70 1009.87 1010.05 1010.42 1011.17 1011.50 1012.29 1011.99 1011.28 1010.04 1008.23 1007.18 1006.33 1005.99 1006.10 1006.15 1005.96 1005.57 1005.31 1004.90 1004.25 1003.94 1003.35 1002.81 1002.32 1001.42 1000.79 1000.78 1000.77 1001.11 1001.55 1002.05 1002.59 1003.03 1003.54 1003.75 1003.91 1004.35 1004.78 1004.97 1005.26 1005.49
1010.04 1010.08 1010.23 1010.41 1010.63 1011.28 1011.19 1012.03 1012.65 1012.97 1012.58 1010.73 1008.46 1007.62 1006.48 1006.13 1006.27 1006.28 1005.99 1005.98 1005.78 1005.23 1004.73 1004.19 1003.73 1003.41 1002.62 1001.84 1001.23 1001.16 1001.22 1001.31 1001.49 1001.93 1002.31 1002.54 1002.80 1003.62 1003.98 1004.30 1004.51 1004.89 1005.27 1005.57
1010.58 1010.88 1010.99 1010.96 1010.70 1010.80 1011.83 1012.09 1012.86 1013.59 1013.62 1012.19 1009.63 1007.27 1007.28 1006.95 1006.77 1006.65 1006.39 1006.43 1006.20 1005.65 1005.22 1004.71 1004.06 1003.59 1002.89 1002.02 1001.60 1001.30 1001.66 1001.81 1002.07 1002.18 1002.37 1002.63 1002.59 1003.04 1003.44 1003.62 1004.00 1004.52 1005.06 1005.42
1011.13 1011.27 1011.10 1010.93 1011.19 1011.48 1011.61 1011.79 1012.32 1012.91 1012.93 1012.28 1010.95 1007.60 1006.84 1007.11 1006.94 1006.79 1006.60 1006.47 1006.35 1006.07 1005.44 1005.11 1004.64 1003.94 1003.23 1002.79 1002.18 1001.65 1001.62 1001.62 1002.17 1002.56 1002.42 1002.78 1003.01 1002.82 1003.13 1003.49 1003.71 1004.14 1004.58 1005.10
1011.15 1011.50 1011.18 1010.86 1011.63 1011.76 1011.53 1011.73 1011.92 1012.47 1012.85 1011.65 1010.67 1007.68 1007.07 1006.98 1006.58 1006.64 1006.65 1006.41 1006.25 1005.98 1005.54 1005.12 1004.65 1004.26 1003.78 1003.32 1002.76 1002.42 1002.50 1002.39 1002.44 1002.43 1002.25 1002.19 1002.60 1002.71 1002.94 1003.26 1003.39 1003.71 1004.07 1004.70
1011.07 1011.27 1011.07 1010.69 1010.53 1011.09 1011.29 1011.32 1011.55 1011.68 1011.40 1010.40 1008.90 1007.45 1006.84 1006.70 1006.60 1006.56 1006.62 1006.50 1006.09 1005.71 1005.24 1004.87 1004.42 1004.18 1003.99 1003.86 1003.44 1002.97 1002.70 1002.74 1002.63 1002.42 1002.15 1001.93 1002.02 1002.05 1002.54 1002.72 1003.14 1003.30 1003.58 1004.05
1011.51 1011.21 1011.27 1010.97 1010.78 1010.89 1010.61 1010.43 1010.60 1010.64 1010.20 1009.92 1008.06 1007.66 1006.98 1006.87 1006.83 1006.94 1006.88 1006.56 1006.15 1005.57 1004.90 1004.55 1004.38 1004.13 1003.95 1003.68 1003.43 1003.08 1002.61 1002.50 1002.60 1002.67 1002.35 1002.21 1002.17 1002.19 1002.28 1002.45 1002.53 1002.84 1003.27 1003.33
1011.84 1011.48 1011.54 1010.99 1010.76 1010.38 1009.85 1009.61 1009.55 1009.34 1009.34 1008.93 1008.40 1007.45 1007.47 1007.54 1007.38 1007.15 1006.89 1006.36 1005.57 1005.03 1004.64 1004.35 1004.07 1003.80 1003.42 1003.27 1003.17 1002.89 1002.40 1002.18 1002.34 1002.67 1002.48 1002.20 1001.94 1002.02 1002.04 1001.99 1002.16 1002.35 1002.73 1003.15
1011.97 1011.79 1011.69 1010.74 1010.76 1010.32 1009.36 1008.37 1008.32 1008.58 1008.81 1008.54 1008.03 1007.40 1007.40 1007.33 1007.34 1007.17 1006.76 1006.41 1005.58 1004.91 1004.44 1004.00 1003.70 1003.26 1002.93 1002.82 1002.70 1002.47 1002.34 1002.21 1002.11 1002.03 1001.73 1002.00 1001.65 1001.71 1001.71 1001.60 1001.53 1001.85 1002.24 1002.66
1011.90 1011.93 1012.03 1011.21 1010.74 1009.72 1008.80 1008.86 1008.78 1008.86 1008.63 1008.58 1008.27 1007.99 1008.10 1008.05 1007.61 1007.04 1006.74 1006.01 1005.12 1004.40 1003.78 1003.37 1003.07 1002.71 1002.36 1002.04 1001.69 1001.58 1001.40 1001.27 1001.23 1001.16 1000.97 1000.88 1000.91 1001.21 1001.23 1001.13 1001.19 1001.45 1001.87 1002.09
1011.75 1011.91 1011.86 1011.43 1010.78 1009.54 1008.69 1009.14 1009.23 1009.24 1008.69 1008.81 1009.03 1008.89 1008.59 1008.22 1007.50 1005.94 1005.97 1005.59 1005.05 1004.51 1003.74 1002.83 1002.27 1001.97 1001.44 1001.04 1000.54 1000.16 999.93 999.90 999.69 999.56 999.76 999.90 1000.00 1000.05 1000.21 1000.27 1000.71 1000.88 1001.43 1001.85
1011.93 1011.96 1012.01 1012.04 1011.28 1009.95 1009.46 1009.64 1009.90 1009.89 1008.81 1009.58 1009.79 1009.40 1009.08 1008.48 1007.35 1005.33 1005.55 1005.55 1004.84 1004.22 1003.59 1002.61 1001.80 1000.97 1000.48 1000.02 999.97 999.57 998.78 998.51 998.04 998.09 998.01 998.46 998.67 998.76 998.94 999.41 999.90 1000.16 1000.70 1000.96
1011.98 1012.16 1011.86 1011.62 1011.18 1010.16 1010.17 1010.23 1010.29 1010.40 1010.32 1010.23 1010.34 1009.96 1009.41 1008.84 1007.99 1006.23 1005.69 1004.91 1004.53 1003.50 1002.46 1001.83 1001.02 999.93 999.46 999.35 998.87 997.97 997.33 996.51 996.65 997.12 996.94 996.91 997.23 997.58 997.98 998.47 998.89 999.19 999.81 1000.06
1011.13 1011.36 1011.40 1011.51 1011.12 1010.68 1010.80 1010.54 1010.99 1011.19 1010.75 1010.84 1010.47 1010.08 1009.26 1008.46 1007.35 1006.34 1005.49 1004.23 1003.30 1002.23 1001.70 1001.02 999.57 998.91 998.24 997.97 997.64 996.61 996.00 995.56 995.89 995.96 995.90 995.52 995.77 996.36 996.83 997.41 997.74 998.18 998.67 999.08
1011.05 1010.90 1011.09 1011.31 1010.84 1011.01 1011.24 1011.46 1011.69 1011.82 1011.40 1010.97 1010.67 1009.82 1008.99 1007.97 1007.08 1006.04 1004.52 1003.47 1002.57 1001.69 1000.51 999.80 999.03 997.72 996.97 996.36 995.92 995.05 994.33 994.32 994.16 994.22 994.15 994.55 995.07 995.05 995.40 995.79 996.46 997.18 997.63 997.80
1010.74 1011.24 1011.14 1011.22 1011.14 1011.17 1011.33 1011.60 1011.63 1011.64 1011.35 1010.86 1010.33 1009.46 1008.76 1007.87 1006.62 1005.14 1004.07 1002.92 1001.78 1000.91 999.86 998.90 997.83 996.50 995.30 994.58 993.81 992.96 992.29 992.08 992.05 992.13 992.65 992.98 993.47 993.80 994.08 994.64 995.27 995.88 996.22 996.65
1011.33 1011.39 1011.31 1011.20 1011.17 1011.18 1011.31 1011.37 1011.44 1011.20 1011.01 1010.44 1009.87 1009.32 1008.37 1007.53 1005.96 1004.94 1003.71 1002.49 1001.24 1000.28 999.14 997.94 996.62 995.23 994.06 993.00 991.88 990.85 990.52 990.18 989.44 989.92 991.04 991.72 992.13 992.59 992.65 993.62 994.41 994.86 995.38 995.70
1011.28 1011.30 1011.49 1011.43 1012.04 1012.14 1011.63 1011.55 1011.48 1011.01 1010.52 1010.06 1009.49 1008.50 1007.83 1007.22 1005.68 1004.59 1003.29 1002.16 1001.02 999.66 998.15 996.77 995.79 994.52 993.05 992.00 990.72 990.44 989.83 988.58 986.74 988.63 990.04 990.83 991.21 992.15 992.70 993.07 993.82 994.59 995.12 995.54
Wind_Speed
2 5 9 8 7 2 3 4 7 10 13 6 14 15 13 15 13 14 14 13 10 13 15 15 14 13 14 11 14 18 17 16 13 12 12 11 13 11 10 11 14 14 11 16
3 9 10 6 5 6 6 7 10 9 10 6 15 18 16 13 13 14 15 15 16 10 12 13 12 11 11 14 17 17 18 17 16 12 12 10 11 8 10 9 10 13 15 14
8 2 8 7 6 7 8 7 9 12 8 11 17 21 15 9 12 14 13 14 15 16 16 13 12 9 10 12 15 16 18 17 16 15 10 7 8 5 9 10 11 12 13 11
7 5 8 5 7 9 11 6 7 6 9 12 11 19 16 17 19 15 16 15 15 16 13 13 13 12 10 12 13 13 15 17 16 17 15 16 12 10 10 12 11 10 13 12
2 3 3 4 5 8 8 1 5 8 12 11 13 20 13 12 16 20 17 20 20 12 10 13 14 15 13 10 11 12 13 15 16 18 17 15 15 11 9 10 12 12 12 13
8 1 4 5 3 1 2 6 7 3 8 14 17 17 13 17 16 13 14 14 11 12 12 11 12 14 14 11 10 10 12 14 15 17 18 18 17 15 10 11 11 9 10 11
6 9 6 2 5 2 1 3 8 9 10 15 5 15 18 24 22 16 12 9 9 10 11 12 14 16 17 14 12 12 13 14 13 13 14 15 14 13 13 11 8 8 7 7
4 5 3 3 1 0 2 2 5 11 14 18 15 11 8 11 10 6 7 8 10 12 10 10 13 15 17 16 13 14 15 15 14 12 11 10 11 9 8 9 7 6 7 7
4 3 2 3 2 2 5 5 2 5 8 10 7 12 18 2 10 12 12 13 12 13 11 13 13 10 13 15 12 12 14 13 13 12 11 11 10 9 9 9 7 6 6 5
2 5 2 2 4 5 2 7 3 2 5 7 8 12 7 9 11 13 15 14 14 15 15 13 14 15 10 10 8 6 9 13 13 12 12 11 12 11 10 9 9 7 6 6
4 3 2 2 5 6 4 4 3 0 3 5 9 5 3 7 6 10 12 10 13 13 14 15 14 14 13 9 6 4 6 4 3 8 8 9 11 12 11 10 10 9 7 6
2 3 4 6 2 4 6 7 10 6 6 7 7 16 10 6 6 12 11 10 11 12 12 13 14 13 13 13 12 10 3 5 7 6 6 9 8 9 9 9 10 11 10 9
7 3 4 3 4 3 5 8 6 3 1 13 11 9 1 8 18 18 11 11 12 13 15 14 13 12 12 13 10 9 10 8 7 8 12 11 10 10 12 13 12 12 11 10
9 5 9 8 7 2 6 9 11 11 10 13 18 25 22 19 18 15 12 13 16 17 16 16 16 14 12 10 6 6 6 8 10 7 6 9 11 12 13 12 12 12 12 12
4 7 7 10 11 9 14 17 16 17 18 16 20 20 21 19 16 11 12 14 16 18 20 20 17 16 14 12 12 10 6 9 7 10 9 7 8 10 11 11 13 12 12 13
2 4 3 9 12 14 18 19 18 18 17 20 20 18 5 6 9 13 15 19 22 22 21 20 20 18 18 16 13 12 12 9 9 10 12 8 6 7 10 11 12 13 14 13
3 3 2 6 1 9 14 9 11 10 10 10 13 15 16 18 16 16 18 20 23 23 21 22 22 21 19 18 17 16 14 13 13 15 13 13 10 10 9 9 12 14 15 14
5 4 3 5 7 6 5 0 2 7 11 12 16 17 14 14 18 21 20 21 22 22 23 23 21 21 19 22 22 20 18 17 16 18 18 17 14 13 11 9 10 12 13 14
9 7 4 4 4 12 1 1 3 5 12 10 8 11 16 20 23 22 15 17 21 25 26 24 22 23 21 23 22 21 21 20 21 21 20 19 18 16 14 13 12 11 12 12
7 5 5 3 4 5 4 3 4 4 12 2 13 18 21 21 16 18 20 22 24 23 22 22 27 23 24 21 18 19 22 24 24 23 22 21 20 19 17 16 14 12 11 13
4 3 10 8 5 7 4 5 6 5 7 15 17 19 21 18 17 27 26 24 22 26 29 26 25 24 20 24 22 23 23 25 21 21 20 21 20 19 18 15 14 14 14 12
6 5 4 4 5 6 5 4 5 9 13 17 20 20 22 22 24 24 25 27 28 25 27 26 22 20 23 21 19 23 24 24 21 21 22 21 20 17 16 18 15 16 14 15
4 3 2 5 2 1 3 8 5 11 16 18 20 22 21 23 24 26 28 27 25 26 24 20 21 23 21 20 18 21 23 22 22 21 22 22 21 18 19 19 17 15 15 14
3 2 2 3 2 2 7 4 10 13 16 19 19 19 19 22 26 29 26 25 23 21 23 20 21 21 21 18 18 20 22 21 21 21 20 17 18 18 17 13 14 14 14 14
3 3 2 5 4 7 2 8 15 17 18 20 20 20 21 22 27 27 24 24 23 22 20 19 18 18 20 19 19 14 14 16 18 19 16 15 14 11 15 14 13 14 15 14
3 2 3 2 3 4 11 13 16 19 20 21 19 22 21 21 26 26 23 21 21 21 21 18 19 19 19 18 11 12 11 13 4 12 11 10 9 12 10 8 10 10 10 12
Wind_Direction
86 218 226 225 211 211 225 236 266 273 277 270 277 288 288 288 291 283 287 285 268 277 289 296 295 276 253 234 219 211 206 206 185 186 188 192 204 198 208 217 215 211 211 200
210 255 262 204 190 213 225 268 282 279 264 236 288 286 294 269 271 271 272 283 293 280 282 292 304 281 251 240 219 208 207 201 198 193 194 190 203 211 210 207 202 208 216 215
226 171 112 170 204 221 245 257 274 288 304 276 284 284 277 262 256 256 262 258 268 278 281 286 293 284 255 241 236 220 206 198 195 194 186 175 166 191 203 216 211 202 201 201
244 235 243 226 236 213 270 207 262 275 306 303 346 294 289 294 285 273 266 263 261 263 264 277 285 285 269 252 229 233 221 203 192 186 186 185 188 191 210 216 213 203 197 194
195 197 202 239 249 187 282 170 264 282 283 293 279 275 290 277 274 284 279 275 276 286 283 287 291 296 297 271 245 221 215 209 198 191 196 188 195 197 203 207 213 208 204 197
258 201 237 266 95 228 19 289 282 268 278 260 277 267 296 297 300 298 286 285 301 306 308 303 302 302 288 281 246 223 207 207 203 200 197 198 196 197 195 198 209 204 204 202
265 254 252 191 224 124 172 305 286 266 257 277 338 298 281 298 302 302 310 332 348 336 338 334 334 324 307 283 252 225 211 211 200 202 199 199 200 198 198 196 204 207 217 218
253 257 174 126 236 193 135 256 265 291 293 299 305 263 279 348 17 10 5 356 337 358 5 5 349 325 317 298 265 240 220 211 194 191 187 184 177 181 184 186 187 199 213 227
199 249 90 56 126 229 145 226 67 290 273 283 267 281 280 357 11 3 3 3 1 336 327 344 354 342 317 312 285 256 234 213 188 182 176 174 175 177 177 176 182 190 198 205
163 267 6 84 157 71 256 140 202 156 280 276 291 287 287 328 339 342 354 356 351 355 340 326 335 335 338 317 300 263 233 207 183 184 185 177 171 179 172 168 178 185 188 194
150 227 142 238 215 233 173 198 152 111 247 274 295 286 266 291 309 330 338 349 351 351 350 349 338 324 326 2 343 206 194 187 199 203 197 197 183 179 172 172 173 178 176 192
137 173 234 245 129 284 241 241 225 225 211 235 286 279 268 244 308 331 326 332 342 339 347 340 337 344 349 344 340 351 289 220 224 235 219 221 206 183 182 189 182 177 182 188
175 191 255 193 159 172 212 193 198 185 312 252 264 267 190 260 294 313 307 325 333 335 332 331 332 332 336 341 339 344 339 340 316 239 216 206 214 205 205 199 188 185 178 187
170 175 240 261 291 182 238 229 230 245 261 271 253 276 290 299 304 305 313 327 329 325 325 326 327 327 326 328 340 356 0 2 354 347 312 266 233 208 214 201 194 190 188 184
217 243 225 252 266 254 266 270 261 247 255 253 275 286 301 309 310 309 309 312 315 316 318 319 320 317 317 320 315 314 317 320 332 328 332 321 289 254 226 211 197 194 197 186
176 232 222 269 269 268 275 269 261 254 252 264 269 283 330 306 298 300 310 314 311 310 311 310 308 305 303 305 307 299 303 309 316 300 297 296 301 293 247 219 209 199 195 191
204 199 257 280 300 301 270 271 261 258 245 257 270 297 313 306 308 308 307 302 299 301 303 304 303 299 294 290 291 279 270 271 270 267 263 265 262 258 262 236 218 207 195 184
179 188 193 282 305 248 49 15 260 257 272 274 279 297 316 306 309 301 298 296 297 299 301 299 297 290 285 288 283 276 268 268 261 257 258 256 248 247 242 238 219 209 201 190
211 201 233 256 250 301 300 112 281 304 297 315 315 313 312 314 312 293 301 302 301 301 297 294 297 292 291 284 274 267 262 269 273 263 251 245 244 239 237 232 227 209 210 209
163 221 220 170 250 271 67 113 347 305 285 51 333 315 315 317 299 297 313 306 298 296 290 289 284 286 284 281 277 274 270 270 261 255 248 242 235 235 232 229 223 218 215 216
145 186 222 233 249 269 32 341 311 272 340 324 324 312 309 301 290 298 299 298 296 292 293 291 289 278 287 283 279 274 273 264 262 262 250 233 230 231 234 233 227 217 217 220
186 192 194 206 240 260 20 335 321 338 313 313 312 313 306 297 296 298 301 298 300 303 301 294 284 287 280 277 273 270 265 266 258 250 250 241 228 230 231 224 225 220 215 213
213 222 198 224 296 96 6 295 327 321 310 315 313 309 302 303 304 302 303 303 303 300 297 295 293 288 286 278 266 261 259 258 254 246 240 238 244 235 226 219 213 218 215 218
144 156 225 267 142 274 307 171 327 328 319 318 313 306 311 307 306 305 306 306 305 308 306 304 297 290 287 284 274 261 258 250 245 238 235 230 225 227 215 207 210 213 218 217
13 192 203 260 286 319 236 306 327 323 321 321 318 316 307 304 303 309 309 309 308 307 306 302 299 296 295 294 287 286 290 277 249 221 216 220 212 226 193 192 201 211 215 212
196 205 232 287 26 283 296 312 319 322 322 323 322 316 313 311 306 312 309 309 309 307 307 308 306 304 305 304 313 320 318 319 162 171 197 195 198 195 209 201 195 208 220 185